User: anonymous   Login
Location: Codford Saint Peter
(51.1597°N, 2.0531°W)
Time: 10:41:08
(UTC+00:00)
Language:

Cosmos 1269 Rocket - Orbit

View from above orbital plane
View from above orbital plane
View from above satellite
View from above satellite

Ground track
Ground track

The orbit data is extracted from the following two-line orbital elements,

1 12443U 81041B   20337.40346385  .00000089  00000-0  40738-4 0  9999
2 12443  74.0556  13.6590 0004112 179.6000 180.5156 14.34743668 69050
Epoch (UTC): 02 December 2020 09:40:59
Eccentricity: 0.0004112
inclination: 74.0556°
perigee height: 773 km
apogee height: 779 km
right ascension of ascending node: 13.6590°
argument of perigee: 179.6000°
revolutions per day: 14.34743668
mean anomaly at epoch: 180.5156°
orbit number at epoch: 6905

The dashed part of the orbit path shows where the satellite is in the earth's shadow,  

DLR